,MapDate,Name,None,D0,D1,D2,D3,D4,ValidStart,ValidEnd,StatisticFormatID,SUMAREA,DSCI,RANK
0,20240716,Missouri River Basin DEWS,51.62,29.75,15.73,2.86,0.04,0.0,2024-07-16,2024-07-22,2,18.63,69.95,751.0
1,20240709,Missouri River Basin DEWS,53.28,30.57,15.22,0.93,0.0,0.0,2024-07-09,2024-07-15,2,16.15,63.8,785.0
2,20240702,Missouri River Basin DEWS,52.29,33.08,14.11,0.52,0.0,0.0,2024-07-02,2024-07-08,2,14.63,62.86,793.0
3,20240625,Missouri River Basin DEWS,49.75,37.15,12.54,0.55,0.0,0.0,2024-06-25,2024-07-01,2,13.09,63.88,784.0
4,20240618,Missouri River Basin DEWS,55.92,32.83,10.7,0.55,0.0,0.0,2024-06-18,2024-06-24,2,11.25,55.88,840.0
5,20240611,Missouri River Basin DEWS,59.0,31.29,9.27,0.45,0.0,0.0,2024-06-11,2024-06-17,2,9.72,51.18,864.0
6,20240604,Missouri River Basin DEWS,70.35,18.99,10.2,0.46,0.0,0.0,2024-06-04,2024-06-10,2,10.66,40.77,917.0
7,20240528,Missouri River Basin DEWS,68.57,19.72,11.12,0.58,0.0,0.0,2024-05-28,2024-06-03,2,11.7,43.7,906.0
8,20240521,Missouri River Basin DEWS,67.67,21.53,9.79,0.94,0.07,0.0,2024-05-21,2024-05-27,2,10.8,44.21,903.0
9,20240514,Missouri River Basin DEWS,64.48,20.31,13.51,1.55,0.15,0.0,2024-05-14,2024-05-20,2,15.21,52.58,859.5
10,20240507,Missouri River Basin DEWS,55.37,27.71,14.52,2.25,0.15,0.0,2024-05-07,2024-05-13,2,16.92,64.1,782.0
11,20240430,Missouri River Basin DEWS,53.63,26.71,16.21,3.3,0.15,0.0,2024-04-30,2024-05-06,2,19.66,69.63,753.0
12,20240423,Missouri River Basin DEWS,47.7,30.59,18.12,3.45,0.15,0.0,2024-04-23,2024-04-29,2,21.72,77.78,701.0
13,20240416,Missouri River Basin DEWS,45.14,33.07,19.05,2.71,0.03,0.0,2024-04-16,2024-04-22,2,21.79,79.42,691.0
14,20240409,Missouri River Basin DEWS,46.78,31.69,18.38,3.15,0.0,0.0,2024-04-09,2024-04-15,2,21.53,77.9,700.0
15,20240402,Missouri River Basin DEWS,41.14,35.91,18.3,4.65,0.0,0.0,2024-04-02,2024-04-08,2,22.95,86.46,657.0
16,20240326,Missouri River Basin DEWS,38.13,38.71,18.52,4.65,0.0,0.0,2024-03-26,2024-04-01,2,23.17,89.7,643.0
17,20240319,Missouri River Basin DEWS,31.55,42.58,19.68,6.18,0.0,0.0,2024-03-19,2024-03-25,2,25.86,100.48,576.0
18,20240312,Missouri River Basin DEWS,33.83,37.93,20.97,7.18,0.09,0.0,2024-03-12,2024-03-18,2,28.24,101.77,567.0
19,20240305,Missouri River Basin DEWS,34.18,37.65,20.99,7.09,0.09,0.0,2024-03-05,2024-03-11,2,28.17,101.26,570.0
20,20240227,Missouri River Basin DEWS,35.46,39.2,17.78,7.48,0.09,0.0,2024-02-27,2024-03-04,2,25.35,97.56,594.0
21,20240220,Missouri River Basin DEWS,42.85,34.17,16.27,6.62,0.09,0.0,2024-02-20,2024-02-26,2,22.98,86.93,656.0
22,20240213,Missouri River Basin DEWS,46.15,31.03,17.32,5.5,0.0,0.0,2024-02-13,2024-02-19,2,22.82,82.17,678.0
23,20240206,Missouri River Basin DEWS,44.81,34.94,14.53,5.67,0.06,0.0,2024-02-06,2024-02-12,2,20.26,81.25,686.0
24,20240130,Missouri River Basin DEWS,44.18,33.09,16.47,6.18,0.09,0.0,2024-01-30,2024-02-05,2,22.74,84.93,666.0
25,20240123,Missouri River Basin DEWS,42.98,34.56,16.81,5.48,0.17,0.0,2024-01-23,2024-01-29,2,22.46,85.3,662.0
26,20240116,Missouri River Basin DEWS,46.93,29.32,16.94,5.55,1.26,0.0,2024-01-16,2024-01-22,2,23.75,84.89,667.0
27,20240109,Missouri River Basin DEWS,49.47,30.94,11.91,6.36,1.32,0.0,2024-01-09,2024-01-15,2,19.59,79.12,695.0
28,20240102,Missouri River Basin DEWS,53.49,27.03,10.92,6.95,1.58,0.03,2024-01-02,2024-01-08,2,19.48,76.19,710.0
29,20231226,Missouri River Basin DEWS,55.53,25.57,10.22,6.69,1.67,0.31,2023-12-26,2024-01-01,2,18.89,74.31,721.0
30,20231219,Missouri River Basin DEWS,58.14,21.56,9.79,8.29,1.83,0.39,2023-12-19,2023-12-25,2,20.3,75.28,715.0
31,20231212,Missouri River Basin DEWS,61.35,18.67,9.43,8.09,1.9,0.56,2023-12-12,2023-12-18,2,19.98,72.2,735.0
32,20231205,Missouri River Basin DEWS,62.05,18.11,9.84,7.57,1.87,0.56,2023-12-05,2023-12-11,2,19.84,70.78,745.0
33,20231128,Missouri River Basin DEWS,63.01,16.07,10.62,7.83,1.91,0.56,2023-11-28,2023-12-04,2,20.92,71.24,742.0
34,20231121,Missouri River Basin DEWS,65.26,10.68,13.85,7.75,1.91,0.56,2023-11-21,2023-11-27,2,24.07,72.07,736.0
35,20231114,Missouri River Basin DEWS,66.18,9.91,13.29,8.14,1.77,0.7,2023-11-14,2023-11-20,2,23.9,71.49,741.0
36,20231107,Missouri River Basin DEWS,67.15,9.93,12.4,8.07,1.75,0.7,2023-11-07,2023-11-13,2,22.92,69.44,754.0
37,20231031,Missouri River Basin DEWS,65.76,10.84,11.71,9.13,1.86,0.7,2023-10-31,2023-11-06,2,23.4,72.59,731.0
38,20231024,Missouri River Basin DEWS,61.24,10.85,11.49,12.32,3.4,0.7,2023-10-24,2023-10-30,2,27.91,87.89,652.0
39,20231017,Missouri River Basin DEWS,61.27,10.28,12.03,12.32,3.4,0.7,2023-10-17,2023-10-23,2,28.45,88.4,648.0
40,20231010,Missouri River Basin DEWS,58.95,9.67,13.85,12.7,4.12,0.7,2023-10-10,2023-10-16,2,31.37,95.45,607.0
41,20231003,Missouri River Basin DEWS,58.94,9.48,13.85,12.93,4.09,0.7,2023-10-03,2023-10-09,2,31.57,95.83,604.0
42,20230926,Missouri River Basin DEWS,57.8,10.96,13.98,11.4,5.16,0.7,2023-09-26,2023-10-02,2,31.24,97.26,597.0
43,20230919,Missouri River Basin DEWS,54.86,12.24,14.55,11.93,5.69,0.72,2023-09-19,2023-09-25,2,32.89,103.49,557.0
44,20230912,Missouri River Basin DEWS,55.08,12.05,14.55,12.4,5.73,0.2,2023-09-12,2023-09-18,2,32.88,102.27,563.0
45,20230905,Missouri River Basin DEWS,55.63,11.94,15.29,11.5,5.44,0.2,2023-09-05,2023-09-11,2,32.43,99.78,578.0
46,20230829,Missouri River Basin DEWS,57.85,11.13,15.81,10.41,4.6,0.2,2023-08-29,2023-09-04,2,31.02,93.38,622.0
47,20230822,Missouri River Basin DEWS,57.22,11.94,15.98,10.6,4.07,0.2,2023-08-22,2023-08-28,2,30.85,92.98,626.0
48,20230815,Missouri River Basin DEWS,55.77,13.77,19.17,7.47,3.62,0.2,2023-08-15,2023-08-21,2,30.46,90.0,639.5
49,20230808,Missouri River Basin DEWS,51.43,16.41,19.67,8.17,3.99,0.33,2023-08-08,2023-08-14,2,32.16,97.87,592.0
50,20230801,Missouri River Basin DEWS,46.87,20.47,17.78,9.24,5.06,0.58,2023-08-01,2023-08-07,2,32.66,106.89,535.0
51,20230725,Missouri River Basin DEWS,53.39,15.69,14.02,10.47,5.85,0.58,2023-07-25,2023-07-31,2,30.92,101.44,569.0
52,20230718,Missouri River Basin DEWS,54.63,15.23,12.11,10.82,6.14,1.07,2023-07-18,2023-07-24,2,30.14,101.82,565.0
53,20230711,Missouri River Basin DEWS,54.7,15.0,11.41,11.03,6.3,1.55,2023-07-11,2023-07-17,2,30.29,103.86,554.0
54,20230704,Missouri River Basin DEWS,54.74,12.9,12.0,11.72,6.51,2.13,2023-07-04,2023-07-10,2,32.36,108.75,520.0
55,20230627,Missouri River Basin DEWS,51.79,14.99,12.2,13.02,5.61,2.39,2023-06-27,2023-07-03,2,33.22,112.84,503.0
56,20230620,Missouri River Basin DEWS,42.72,21.76,15.02,12.63,5.66,2.21,2023-06-20,2023-06-26,2,35.52,123.38,473.0
57,20230613,Missouri River Basin DEWS,46.57,21.09,14.46,11.79,3.73,2.36,2023-06-13,2023-06-19,2,32.34,112.1,506.0
58,20230606,Missouri River Basin DEWS,39.5,26.72,16.96,10.37,3.88,2.57,2023-06-06,2023-06-12,2,33.78,120.12,481.0
59,20230530,Missouri River Basin DEWS,37.93,25.7,20.18,9.47,3.64,3.08,2023-05-30,2023-06-05,2,36.37,124.43,471.0
60,20230523,Missouri River Basin DEWS,33.91,30.87,18.3,11.15,3.08,2.69,2023-05-23,2023-05-29,2,35.22,126.69,466.0
61,20230516,Missouri River Basin DEWS,35.1,31.19,16.86,11.45,3.2,2.19,2023-05-16,2023-05-22,2,33.7,123.01,475.0
62,20230509,Missouri River Basin DEWS,23.9,29.67,24.33,10.9,8.36,2.83,2023-05-09,2023-05-15,2,46.42,158.62,367.0
63,20230502,Missouri River Basin DEWS,26.4,24.82,27.81,10.44,7.73,2.79,2023-05-02,2023-05-08,2,48.77,156.63,376.0
64,20230425,Missouri River Basin DEWS,30.11,22.63,28.62,8.72,7.23,2.69,2023-04-25,2023-05-01,2,47.26,148.4,396.0
65,20230418,Missouri River Basin DEWS,31.4,24.81,23.68,12.82,4.94,2.34,2023-04-18,2023-04-24,2,43.78,142.09,420.0
66,20230411,Missouri River Basin DEWS,28.54,27.35,23.01,13.92,5.23,1.94,2023-04-11,2023-04-17,2,44.1,145.75,407.0
67,20230404,Missouri River Basin DEWS,24.14,32.16,22.75,13.53,5.8,1.63,2023-04-04,2023-04-10,2,43.71,149.6,394.0
68,20230328,Missouri River Basin DEWS,24.12,29.35,25.36,13.74,5.8,1.63,2023-03-28,2023-04-03,2,46.53,152.64,387.0
69,20230321,Missouri River Basin DEWS,22.32,29.65,26.22,14.13,6.06,1.63,2023-03-21,2023-03-27,2,48.04,156.87,375.0
70,20230314,Missouri River Basin DEWS,22.94,26.03,26.87,15.58,6.96,1.63,2023-03-14,2023-03-20,2,51.04,162.5,360.0
71,20230307,Missouri River Basin DEWS,22.69,22.37,30.02,16.33,6.97,1.62,2023-03-07,2023-03-13,2,54.94,167.38,353.0
72,20230228,Missouri River Basin DEWS,21.75,21.58,31.7,15.46,7.74,1.77,2023-02-28,2023-03-06,2,56.67,171.17,346.0
73,20230221,Missouri River Basin DEWS,17.79,22.04,34.05,16.43,7.44,2.24,2023-02-21,2023-02-27,2,60.16,180.39,316.0
74,20230214,Missouri River Basin DEWS,16.45,23.27,33.55,16.47,7.62,2.64,2023-02-14,2023-02-20,2,60.28,183.46,306.0
75,20230207,Missouri River Basin DEWS,11.9,25.14,34.17,17.47,8.69,2.64,2023-02-07,2023-02-13,2,62.97,193.85,285.0
76,20230131,Missouri River Basin DEWS,11.93,25.11,28.42,20.92,10.97,2.64,2023-01-31,2023-02-06,2,62.95,201.79,266.0
77,20230124,Missouri River Basin DEWS,11.31,25.71,27.92,21.35,11.07,2.64,2023-01-24,2023-01-30,2,62.98,203.08,258.0
78,20230117,Missouri River Basin DEWS,11.43,24.94,28.11,21.0,11.79,2.73,2023-01-17,2023-01-23,2,63.63,204.97,250.0
79,20230110,Missouri River Basin DEWS,12.23,24.16,27.87,21.23,11.79,2.73,2023-01-10,2023-01-16,2,63.62,204.4,251.0
80,20230103,Missouri River Basin DEWS,13.19,22.4,28.23,21.28,11.9,3.01,2023-01-03,2023-01-09,2,64.42,205.35,249.0
81,20221227,Missouri River Basin DEWS,12.6,21.1,27.31,21.81,13.34,3.84,2022-12-27,2023-01-02,2,66.3,213.71,208.0
82,20221220,Missouri River Basin DEWS,12.72,20.78,27.51,21.81,13.34,3.84,2022-12-20,2022-12-26,2,66.5,213.79,207.0
83,20221213,Missouri River Basin DEWS,10.45,16.88,28.38,25.1,15.3,3.88,2022-12-13,2022-12-19,2,72.66,229.54,166.0
84,20221206,Missouri River Basin DEWS,9.76,16.42,29.33,25.18,15.86,3.46,2022-12-06,2022-12-12,2,73.83,231.36,159.0
85,20221129,Missouri River Basin DEWS,9.76,15.69,30.3,25.03,15.79,3.43,2022-11-29,2022-12-05,2,74.55,231.69,157.0
86,20221122,Missouri River Basin DEWS,8.27,15.39,30.88,25.22,16.82,3.43,2022-11-22,2022-11-28,2,76.35,237.24,142.0
87,20221115,Missouri River Basin DEWS,7.8,15.85,30.61,25.48,16.82,3.43,2022-11-15,2022-11-21,2,76.34,237.94,139.0
88,20221108,Missouri River Basin DEWS,6.97,16.04,29.02,27.78,17.13,3.06,2022-11-08,2022-11-14,2,76.99,241.24,130.0
89,20221101,Missouri River Basin DEWS,6.59,15.06,29.78,29.62,16.44,2.51,2022-11-01,2022-11-07,2,78.35,241.79,129.0
90,20221025,Missouri River Basin DEWS,6.3,17.09,31.33,26.56,16.11,2.61,2022-10-25,2022-10-31,2,76.61,236.92,143.0
91,20221018,Missouri River Basin DEWS,7.14,17.61,30.38,26.27,15.9,2.7,2022-10-18,2022-10-24,2,75.25,234.28,154.0
92,20221011,Missouri River Basin DEWS,8.82,19.76,28.74,27.22,12.87,2.59,2022-10-11,2022-10-17,2,71.42,223.33,178.0
93,20221004,Missouri River Basin DEWS,9.09,20.55,30.29,25.95,11.54,2.59,2022-10-04,2022-10-10,2,70.37,218.09,196.0
94,20220927,Missouri River Basin DEWS,7.52,21.17,32.85,25.52,10.5,2.43,2022-09-27,2022-10-03,2,71.3,217.58,198.0
95,20220920,Missouri River Basin DEWS,9.53,25.99,29.47,24.87,7.84,2.3,2022-09-20,2022-09-26,2,64.48,202.4,261.0
96,20220913,Missouri River Basin DEWS,15.43,33.69,19.84,22.25,6.82,1.96,2022-09-13,2022-09-19,2,50.87,177.2,327.0
97,20220906,Missouri River Basin DEWS,24.27,27.78,22.66,16.71,6.67,1.91,2022-09-06,2022-09-12,2,47.95,159.46,364.0
98,20220830,Missouri River Basin DEWS,26.14,27.71,23.71,15.1,6.1,1.24,2022-08-30,2022-09-05,2,46.15,151.03,389.0
99,20220823,Missouri River Basin DEWS,30.01,26.6,22.62,13.9,5.87,1.0,2022-08-23,2022-08-29,2,43.39,142.02,421.0
100,20220816,Missouri River Basin DEWS,28.97,27.87,21.42,15.02,5.71,1.0,2022-08-16,2022-08-22,2,43.15,143.61,413.0
101,20220809,Missouri River Basin DEWS,33.51,22.62,21.07,15.85,5.98,0.97,2022-08-09,2022-08-15,2,43.87,141.08,425.0
102,20220802,Missouri River Basin DEWS,37.37,21.08,19.4,15.64,6.41,0.09,2022-08-02,2022-08-08,2,41.54,132.89,448.0
103,20220726,Missouri River Basin DEWS,38.4,20.78,18.77,15.78,6.26,0.02,2022-07-26,2022-08-01,2,40.83,130.8,450.0
104,20220719,Missouri River Basin DEWS,38.44,20.39,19.25,16.26,5.48,0.18,2022-07-19,2022-07-25,2,41.17,130.49,453.0
105,20220712,Missouri River Basin DEWS,41.66,18.51,21.98,13.04,3.95,0.87,2022-07-12,2022-07-18,2,39.84,121.74,479.0
106,20220705,Missouri River Basin DEWS,39.37,21.02,19.91,14.69,4.14,0.87,2022-07-05,2022-07-11,2,39.61,125.82,468.0
107,20220628,Missouri River Basin DEWS,37.8,19.74,23.09,15.07,3.43,0.87,2022-06-28,2022-07-04,2,42.46,129.2,454.0
108,20220621,Missouri River Basin DEWS,34.3,22.11,25.25,14.74,2.74,0.87,2022-06-21,2022-06-27,2,43.6,132.14,449.0
109,20220614,Missouri River Basin DEWS,33.25,22.32,27.14,12.28,3.84,1.18,2022-06-14,2022-06-20,2,44.44,134.7,446.0
110,20220607,Missouri River Basin DEWS,26.4,16.45,36.08,15.74,4.15,1.18,2022-06-07,2022-06-13,2,57.15,158.33,368.0
111,20220531,Missouri River Basin DEWS,24.01,12.66,34.19,22.7,6.44,0.0,2022-05-31,2022-06-06,2,63.33,174.9,336.0
112,20220524,Missouri River Basin DEWS,20.77,9.76,30.08,31.25,8.13,0.0,2022-05-24,2022-05-30,2,69.46,196.19,281.0
113,20220517,Missouri River Basin DEWS,20.56,9.39,30.01,31.03,9.01,0.0,2022-05-17,2022-05-23,2,70.05,198.54,273.0
114,20220510,Missouri River Basin DEWS,18.23,8.25,30.75,34.77,8.0,0.0,2022-05-10,2022-05-16,2,73.52,206.06,245.0
115,20220503,Missouri River Basin DEWS,16.98,8.72,28.37,37.44,8.5,0.0,2022-05-03,2022-05-09,2,74.31,211.78,218.5
116,20220426,Missouri River Basin DEWS,15.84,9.1,21.52,34.71,18.83,0.0,2022-04-26,2022-05-02,2,75.06,231.59,158.0
117,20220419,Missouri River Basin DEWS,14.94,7.47,20.81,34.25,22.52,0.0,2022-04-19,2022-04-25,2,77.58,241.92,128.0
118,20220412,Missouri River Basin DEWS,15.1,7.24,23.23,33.53,20.9,0.0,2022-04-12,2022-04-18,2,77.66,237.89,140.0
119,20220405,Missouri River Basin DEWS,14.98,7.34,23.7,34.55,19.43,0.0,2022-04-05,2022-04-11,2,77.68,236.11,145.0
120,20220329,Missouri River Basin DEWS,15.02,7.54,23.46,34.55,19.43,0.0,2022-03-29,2022-04-04,2,77.44,235.83,148.0
121,20220322,Missouri River Basin DEWS,12.2,12.24,27.35,29.14,19.07,0.0,2022-03-22,2022-03-28,2,75.56,230.64,162.0
122,20220315,Missouri River Basin DEWS,8.45,12.62,26.89,33.57,18.47,0.0,2022-03-15,2022-03-21,2,78.93,240.99,131.0
123,20220308,Missouri River Basin DEWS,8.4,13.26,27.07,34.31,15.85,1.12,2022-03-08,2022-03-14,2,78.35,239.33,136.0
124,20220301,Missouri River Basin DEWS,7.69,13.78,27.56,34.01,15.85,1.12,2022-03-01,2022-03-07,2,78.54,239.93,135.0
125,20220222,Missouri River Basin DEWS,10.72,12.48,30.63,29.45,15.19,1.54,2022-02-22,2022-02-28,2,76.81,230.55,164.0
126,20220215,Missouri River Basin DEWS,10.53,13.01,31.24,28.97,14.62,1.62,2022-02-15,2022-02-21,2,76.45,228.98,167.0
127,20220208,Missouri River Basin DEWS,12.13,17.14,25.98,29.3,13.25,2.2,2022-02-08,2022-02-14,2,70.73,221.0,184.0
128,20220201,Missouri River Basin DEWS,12.79,23.42,18.93,28.68,13.99,2.2,2022-02-01,2022-02-07,2,63.8,214.28,201.0
129,20220125,Missouri River Basin DEWS,13.78,22.81,18.47,28.35,14.39,2.2,2022-01-25,2022-01-31,2,63.41,213.36,210.0
130,20220118,Missouri River Basin DEWS,15.29,21.76,18.36,27.62,14.92,2.05,2022-01-18,2022-01-24,2,62.95,211.27,220.0
131,20220111,Missouri River Basin DEWS,15.32,22.79,18.68,23.17,17.46,2.58,2022-01-11,2022-01-17,2,61.89,212.4,216.0
132,20220104,Missouri River Basin DEWS,15.77,22.06,18.85,22.78,16.75,3.8,2022-01-04,2022-01-10,2,62.18,214.1,203.0
133,20211228,Missouri River Basin DEWS,14.8,23.08,18.63,20.74,17.14,5.6,2021-12-28,2022-01-03,2,62.11,219.12,192.0
134,20211221,Missouri River Basin DEWS,15.25,22.54,18.45,21.26,16.89,5.6,2021-12-21,2021-12-27,2,62.2,218.78,193.0
135,20211214,Missouri River Basin DEWS,16.76,22.34,17.52,19.11,15.67,8.6,2021-12-14,2021-12-20,2,60.9,220.39,189.0
136,20211207,Missouri River Basin DEWS,19.56,16.45,19.49,20.03,15.17,9.31,2021-12-07,2021-12-13,2,64.0,222.75,180.0
137,20211130,Missouri River Basin DEWS,19.75,17.28,19.21,19.81,14.64,9.31,2021-11-30,2021-12-06,2,62.97,220.24,191.0
138,20211123,Missouri River Basin DEWS,22.0,16.19,18.75,21.22,12.53,9.31,2021-11-23,2021-11-29,2,61.81,214.02,204.0
139,20211116,Missouri River Basin DEWS,23.47,15.3,18.67,20.62,15.49,6.44,2021-11-16,2021-11-22,2,61.22,208.66,232.0
140,20211109,Missouri River Basin DEWS,23.27,15.69,19.68,19.11,16.2,6.05,2021-11-09,2021-11-15,2,61.04,207.43,237.0
141,20211102,Missouri River Basin DEWS,23.44,15.52,20.51,18.28,16.1,6.15,2021-11-02,2021-11-08,2,61.04,206.53,242.0
142,20211026,Missouri River Basin DEWS,18.25,16.13,20.92,21.52,17.75,5.43,2021-10-26,2021-11-01,2,65.62,220.68,188.0
143,20211019,Missouri River Basin DEWS,16.7,17.47,21.74,17.67,21.37,5.07,2021-10-19,2021-10-25,2,65.85,224.79,177.0
144,20211012,Missouri River Basin DEWS,14.16,18.19,18.05,18.0,25.36,6.24,2021-10-12,2021-10-18,2,67.65,240.93,132.0
145,20211005,Missouri River Basin DEWS,13.4,18.91,16.35,20.44,24.66,6.24,2021-10-05,2021-10-11,2,67.69,242.77,124.0
146,20210928,Missouri River Basin DEWS,12.08,19.85,16.04,22.84,22.96,6.24,2021-09-28,2021-10-04,2,68.08,243.49,122.0
147,20210921,Missouri River Basin DEWS,14.15,20.08,16.17,21.86,21.83,5.91,2021-09-21,2021-09-27,2,65.77,234.87,151.0
148,20210914,Missouri River Basin DEWS,16.53,18.13,15.15,21.45,22.7,6.04,2021-09-14,2021-09-20,2,65.34,233.78,155.0
149,20210907,Missouri River Basin DEWS,20.75,13.92,14.92,20.64,23.71,6.05,2021-09-07,2021-09-13,2,65.32,230.77,161.0
150,20210831,Missouri River Basin DEWS,18.33,14.45,16.78,19.95,24.3,6.2,2021-08-31,2021-09-06,2,67.23,236.06,146.0
151,20210824,Missouri River Basin DEWS,16.65,13.87,17.55,19.24,27.78,4.91,2021-08-24,2021-08-30,2,69.48,242.36,125.0
152,20210817,Missouri River Basin DEWS,17.05,14.21,17.39,18.56,27.88,4.91,2021-08-17,2021-08-23,2,68.74,240.74,133.0
153,20210810,Missouri River Basin DEWS,17.8,15.68,15.85,19.78,26.73,4.15,2021-08-10,2021-08-16,2,66.51,234.39,152.0
154,20210803,Missouri River Basin DEWS,21.22,14.5,13.98,20.3,25.85,4.15,2021-08-03,2021-08-09,2,64.28,227.51,171.0
155,20210727,Missouri River Basin DEWS,23.85,12.96,16.01,22.73,22.33,2.12,2021-07-27,2021-08-02,2,63.19,213.09,213.0
156,20210720,Missouri River Basin DEWS,24.46,14.83,15.51,22.32,20.92,1.96,2021-07-20,2021-07-26,2,60.71,206.29,243.0
157,20210713,Missouri River Basin DEWS,23.92,17.53,14.32,24.3,19.56,0.36,2021-07-13,2021-07-19,2,58.54,199.11,271.0
158,20210706,Missouri River Basin DEWS,24.79,15.28,15.44,27.96,15.62,0.91,2021-07-06,2021-07-12,2,59.93,197.07,276.0
159,20210629,Missouri River Basin DEWS,26.42,15.68,15.45,28.16,12.92,1.36,2021-06-29,2021-07-05,2,57.89,189.54,291.0
160,20210622,Missouri River Basin DEWS,23.27,20.7,18.98,24.55,11.14,1.36,2021-06-22,2021-06-28,2,56.03,183.67,305.0
161,20210615,Missouri River Basin DEWS,28.68,20.4,20.51,20.22,8.83,1.36,2021-06-15,2021-06-21,2,50.92,164.2,357.0
162,20210608,Missouri River Basin DEWS,31.89,21.01,17.57,19.28,8.89,1.36,2021-06-08,2021-06-14,2,47.1,156.35,377.0
163,20210601,Missouri River Basin DEWS,38.18,17.46,18.65,12.73,11.62,1.36,2021-06-01,2021-06-07,2,44.36,146.23,403.0
164,20210525,Missouri River Basin DEWS,35.02,20.42,19.97,11.61,11.62,1.36,2021-05-25,2021-05-31,2,44.56,148.47,395.0
165,20210518,Missouri River Basin DEWS,33.37,18.43,21.65,11.02,14.17,1.36,2021-05-18,2021-05-24,2,48.2,158.27,369.0
166,20210511,Missouri River Basin DEWS,28.2,20.49,23.85,11.69,15.78,0.0,2021-05-11,2021-05-17,2,51.32,166.38,355.0
167,20210504,Missouri River Basin DEWS,25.08,23.17,22.15,13.57,16.03,0.0,2021-05-04,2021-05-10,2,51.75,172.3,342.0
168,20210427,Missouri River Basin DEWS,23.99,21.03,23.75,15.92,15.31,0.0,2021-04-27,2021-05-03,2,54.98,177.53,325.0
169,20210420,Missouri River Basin DEWS,24.73,19.57,25.16,16.4,14.13,0.0,2021-04-20,2021-04-26,2,55.69,175.61,333.0
170,20210413,Missouri River Basin DEWS,23.31,23.34,23.22,14.33,15.8,0.0,2021-04-13,2021-04-19,2,53.35,175.97,330.0
171,20210406,Missouri River Basin DEWS,22.22,24.05,23.66,16.18,13.89,0.0,2021-04-06,2021-04-12,2,53.73,175.47,334.0
172,20210330,Missouri River Basin DEWS,22.26,24.57,23.76,19.36,10.04,0.0,2021-03-30,2021-04-05,2,53.16,170.33,347.0
173,20210323,Missouri River Basin DEWS,21.33,26.87,22.39,23.13,6.28,0.0,2021-03-23,2021-03-29,2,51.8,166.16,356.0
174,20210316,Missouri River Basin DEWS,14.27,32.38,22.86,25.13,5.36,0.0,2021-03-16,2021-03-22,2,53.35,174.93,335.0
175,20210309,Missouri River Basin DEWS,7.75,22.39,28.8,31.64,9.43,0.0,2021-03-09,2021-03-15,2,69.87,212.63,214.0
176,20210302,Missouri River Basin DEWS,9.52,14.44,37.88,28.7,9.47,0.0,2021-03-02,2021-03-08,2,76.05,214.18,202.0
177,20210223,Missouri River Basin DEWS,9.47,15.83,36.89,27.5,10.32,0.0,2021-02-23,2021-03-01,2,74.71,213.39,209.0
178,20210216,Missouri River Basin DEWS,9.47,15.8,42.58,21.43,10.42,0.31,2021-02-16,2021-02-22,2,74.74,208.48,235.0
179,20210209,Missouri River Basin DEWS,8.97,14.67,39.84,22.22,13.99,0.31,2021-02-09,2021-02-15,2,76.36,218.52,194.0
180,20210202,Missouri River Basin DEWS,8.97,14.67,37.99,23.68,14.38,0.31,2021-02-02,2021-02-08,2,76.36,220.76,186.0
181,20210126,Missouri River Basin DEWS,8.18,15.56,38.07,24.05,13.83,0.31,2021-01-26,2021-02-01,2,76.26,220.72,187.0
182,20210119,Missouri River Basin DEWS,8.04,22.92,35.07,19.84,13.79,0.34,2021-01-19,2021-01-25,2,69.04,209.44,226.0
183,20210112,Missouri River Basin DEWS,8.02,23.58,34.2,20.01,13.85,0.34,2021-01-12,2021-01-18,2,68.4,209.11,228.0
184,20210105,Missouri River Basin DEWS,12.2,20.08,33.51,20.02,13.85,0.34,2021-01-05,2021-01-11,2,67.72,204.26,252.0
185,20201229,Missouri River Basin DEWS,8.77,21.99,35.02,19.12,14.75,0.34,2020-12-29,2021-01-04,2,69.23,210.09,224.0
186,20201222,Missouri River Basin DEWS,9.09,22.91,33.79,19.12,14.75,0.34,2020-12-22,2020-12-28,2,68.0,208.55,233.5
187,20201215,Missouri River Basin DEWS,9.09,22.91,33.79,19.12,14.75,0.34,2020-12-15,2020-12-21,2,68.0,208.55,233.5
188,20201208,Missouri River Basin DEWS,9.09,22.91,33.5,19.41,14.75,0.34,2020-12-08,2020-12-14,2,68.0,208.84,231.0
189,20201201,Missouri River Basin DEWS,9.37,24.19,33.02,18.32,14.88,0.2,2020-12-01,2020-12-07,2,66.42,205.71,247.0
190,20201124,Missouri River Basin DEWS,8.83,28.8,28.25,19.92,13.88,0.31,2020-11-24,2020-11-30,2,62.36,202.13,263.0
191,20201117,Missouri River Basin DEWS,7.95,29.27,31.1,20.64,10.74,0.31,2020-11-17,2020-11-23,2,62.79,197.9,275.0
192,20201110,Missouri River Basin DEWS,4.29,32.26,32.14,20.31,10.7,0.31,2020-11-10,2020-11-16,2,63.46,201.82,265.0
193,20201103,Missouri River Basin DEWS,3.09,32.19,31.83,21.83,10.75,0.31,2020-11-03,2020-11-09,2,64.72,205.89,246.0
194,20201027,Missouri River Basin DEWS,4.18,34.31,29.02,21.42,10.81,0.25,2020-10-27,2020-11-02,2,61.5,201.1,267.0
195,20201020,Missouri River Basin DEWS,3.75,31.64,33.38,19.59,11.38,0.25,2020-10-20,2020-10-26,2,64.6,203.94,254.0
196,20201013,Missouri River Basin DEWS,4.95,32.16,33.57,20.26,9.06,0.0,2020-10-13,2020-10-19,2,62.89,196.32,280.0
197,20201006,Missouri River Basin DEWS,11.51,33.82,27.08,19.33,8.26,0.0,2020-10-06,2020-10-12,2,54.67,179.01,318.0
198,20200929,Missouri River Basin DEWS,11.52,36.66,29.3,16.95,5.58,0.0,2020-09-29,2020-10-05,2,51.83,168.43,351.0
199,20200922,Missouri River Basin DEWS,22.13,36.18,21.57,14.85,5.27,0.0,2020-09-22,2020-09-28,2,41.69,144.95,411.0
200,20200915,Missouri River Basin DEWS,25.89,34.37,20.72,14.67,4.35,0.0,2020-09-15,2020-09-21,2,39.74,137.22,442.0
201,20200908,Missouri River Basin DEWS,25.09,35.04,20.13,13.31,6.43,0.0,2020-09-08,2020-09-14,2,39.87,140.95,427.0
202,20200901,Missouri River Basin DEWS,24.54,37.09,20.58,14.69,3.1,0.0,2020-09-01,2020-09-07,2,38.37,134.72,445.0
203,20200825,Missouri River Basin DEWS,29.37,35.3,19.04,14.67,1.61,0.0,2020-08-25,2020-08-31,2,35.32,123.83,472.0
204,20200818,Missouri River Basin DEWS,38.46,28.8,20.49,10.7,1.56,0.0,2020-08-18,2020-08-24,2,32.75,108.12,524.0
205,20200811,Missouri River Basin DEWS,42.71,25.85,20.57,9.31,1.56,0.0,2020-08-11,2020-08-17,2,31.44,101.16,572.0
206,20200804,Missouri River Basin DEWS,43.5,27.38,19.4,8.0,1.72,0.0,2020-08-04,2020-08-10,2,29.12,97.06,599.0
207,20200728,Missouri River Basin DEWS,41.88,29.6,19.19,7.83,1.5,0.0,2020-07-28,2020-08-03,2,28.52,97.47,595.0
208,20200721,Missouri River Basin DEWS,40.52,33.54,20.2,5.05,0.69,0.0,2020-07-21,2020-07-27,2,25.94,91.85,631.0